Home   Weather   Burbank   Past weeks

Flag for USA Past Weather in Burbank, California, USA — Yesterday and Last 2 Weeks

Now
51 °F

Mostly cloudy.


Feels Like: 48 °F
Forecast: 50 / 59 °F
Wind: 9 mph from South

Location: Bob Hope Airport

Current Time: Jan 19, 2017 at 1:06:38 am

Latest Report: Jan 18, 2017 at 11:53 pm


Visibility: 10 mi

Pressure: 29.98 "Hg

Humidity: 80%

Dew Point: 45 °F

Location of BurbankLocation

Past Weather in Burbank — Graph

°F

Burbank Temperature Yesterday

Maximum temperature yesterday: 57 °F (at 11:53 am)
Minimum temperature yesterday: 42 °F (at 4:53 am)
Average temperature yesterday: 51 °F

High & Low Weather Summary for the Past Weeks

 TemperatureHumidityPressure
High74 °F (Jan 8, 12:53 pm)97% (Jan 4, 11:00 pm)30.20 "Hg (Jan 4, 11:00 pm)
Low41 °F (Jan 17, 5:53 am)26% (Jan 8, 4:53 pm)29.88 "Hg (Jan 12, 1:53 pm)
Average54 °F75%30.04 "Hg
* Reported Jan 3 11:53 pm — Jan 18 11:53 pm, Burbank, Weather by CustomWeather, © 2017

Note: Actual official high and low records may vary slightly from our data, if they occured in-between our weather recording intervals... More about our weather records

Advertising

Burbank Weather History for the Previous 24 Hours

Scroll right to see more
 ConditionsComfort  
Time TempWeatherWind HumidityBarometerVisibility
11:53 pm
Wed, Jan 18
51 °FMostly cloudy.9 mph80%29.98 "Hg10 mi
10:53 pm51 °FPassing clouds.10 mph83%30.00 "Hg10 mi
9:53 pm52 °FMostly cloudy.15 mph80%30.02 "Hg10 mi
8:53 pm53 °FLight rain. Overcast.8 mph80%30.04 "Hg10 mi
7:53 pm52 °FLight rain. Mostly cloudy.9 mph83%30.06 "Hg10 mi
6:53 pm53 °FLight rain. Mostly cloudy.No wind72%30.10 "Hg10 mi
6:06 pm55 °FMostly cloudy.8 mph64%30.13 "Hg10 mi
4:53 pm55 °FMostly cloudy.No wind69%30.08 "Hg10 mi
3:53 pm55 °FScattered clouds.7 mph69%30.09 "Hg10 mi
2:53 pm57 °FSunny.6 mph64%30.09 "Hg6 mi
1:53 pm57 °FSunny.7 mph64%30.06 "Hg6 mi
12:53 pm57 °FSunny.6 mph64%30.09 "Hg10 mi
11:53 am57 °FSunny.8 mph64%30.11 "Hg4 mi
10:53 am56 °FSunny.No wind65%30.14 "Hg6 mi
9:53 am54 °FSunny.No wind62%30.17 "Hg4 mi
8:53 am49 °FSunny.No wind59%30.17 "Hg4 mi
7:53 am45 °FSunny.No wind65%30.16 "Hg10 mi
6:53 am43 °FClear.5 mph74%30.15 "Hg10 mi
5:53 am43 °FClear.3 mph71%30.14 "Hg10 mi
4:53 am42 °FClear.No wind76%30.11 "Hg10 mi
3:53 am44 °FClear.No wind73%30.13 "Hg10 mi
2:53 am43 °FClear.3 mph76%30.12 "Hg10 mi
1:53 am44 °FClear.No wind76%30.11 "Hg10 mi
Weather by CustomWeather, © 2017

See weather overviewHow to use our weather pages